Flag for U.S.A. Weather past 2 weeks in Tempe, Arizona, U.S.A.

Now
95 °F

Scattered clouds.


Feels Like: 95 °F
Forecast: 80 / 94 °F
Wind: 7 mph from North

Location: Phoenix Sky Harbor International Airport

Current Time: Sep 19, 2014 at 3:05:53 PM

Latest Report: Sep 19, 2014 at 1:51 PM


Visibility: 10 mi

Pressure: 29.70 "Hg

Humidity: 32%

Dew point: 61 °F

Location of TempeLocation

Historic Weather in Tempe — Graph

°F

Tempe temperature yesterday

Maximum temperature yesterday: 96 °F (at 2:51 PM)
Minimum temperature yesterday: 77 °F (at 4:51 AM)
Average temperature yesterday: 87 °F

Past Weeks' High & Low Weather Summary

 TemperatureHumidityPressure
High107 °F (Sep 4, 3:51 PM)97% (Sep 8, 6:57 AM)29.92 "Hg (Sep 8, 6:57 AM)
Low71 °F (Sep 8, 3:01 AM)17% (Sep 4, 3:51 PM)29.54 "Hg (Sep 4, 4:51 PM)
Average89 °F45%29.76 "Hg
* Reported Sep 4 1:51 PM — Sep 19 1:51 PM, Tempe, Weather by CustomWeather, © 2014

Note: Actual official high and low records may vary slightly from our data, if they occured in-between our weather recording intervals... More about our weather records

Advertising

Tempe weather history for previous 24 hours

 ConditionsComfort  
Time TempWeatherWind HumidityBarometerVisibility
1:51 PM
Sep 19
95 °FScattered clouds.7 mph32%29.70 "Hg10 mi
12:51 PM94 °FScattered clouds.N/A40%29.73 "Hg10 mi
11:51 AM92 °FScattered clouds.6 mph43%29.75 "Hg10 mi
10:51 AM91 °FScattered clouds.6 mph44%29.77 "Hg10 mi
9:51 AM88 °FScattered clouds.No wind52%29.78 "Hg10 mi
8:51 AM88 °FScattered clouds.3 mph54%29.77 "Hg10 mi
7:51 AM85 °FBroken clouds.5 mph61%29.76 "Hg10 mi
6:51 AM83 °FBroken clouds.3 mph65%29.75 "Hg10 mi
5:51 AM82 °FPartly cloudy.5 mph70%29.72 "Hg10 mi
4:51 AM83 °FPassing clouds.7 mph63%29.71 "Hg10 mi
3:51 AM84 °FPassing clouds.5 mph57%29.70 "Hg10 mi
2:51 AM85 °FPassing clouds.No wind55%29.69 "Hg10 mi
1:51 AM86 °FPartly cloudy.No wind51%29.70 "Hg10 mi
12:51 AM87 °FPassing clouds.3 mph48%29.69 "Hg10 mi
11:51 PM
Sep 18
87 °FPassing clouds.10 mph48%29.69 "Hg10 mi
10:51 PM88 °FPassing clouds.9 mph46%29.69 "Hg10 mi
9:51 PM89 °FPassing clouds.7 mph45%29.68 "Hg10 mi
8:51 PM90 °FPassing clouds.6 mph41%29.67 "Hg10 mi
7:51 PM91 °FPassing clouds.6 mph39%29.66 "Hg10 mi
6:51 PM92 °FPassing clouds.7 mph38%29.64 "Hg10 mi
5:51 PM94 °FPassing clouds.6 mph35%29.63 "Hg10 mi
4:51 PM93 °FPassing clouds.6 mph37%29.63 "Hg10 mi
3:51 PM94 °FPassing clouds.6 mph36%29.63 "Hg10 mi
Weather by CustomWeather, © 2014

See weather overviewHow to use our weather pages